This demonstration page uses our WeatherBlox Daily Observations layout. Learn more.

Hourly Observations for August 6, 2020

Temp ( °F °C ) Dew Point ( °F °C ) Humidity (%) Winds ( mph kmh ) Pressure ( in mb ) Visibility ( mi km ) Precip ( " mm )
12:54 am 00:54 Mostly Clear 69 20.6 59 15 70 70 undefined N/A 29.97 1015 10 16.0934 0 0
1:54 am 01:54 Mostly Clear 67 19.4 59 15 76 76 S 9 15 29.96 1015 10 16.0934 0 0
2:54 am 02:54 Mostly Clear 67 19.4 59 15 76 76 SSE 8 13 29.95 1014 10 16.0934 0 0
3:54 am 03:54 Mostly Cloudy 67 19.4 59 15 76 76 S 8 13 29.96 1015 10 16.0934 0 0
4:54 am 04:54 Mostly Clear 67 19.4 59 15 76 76 undefined N/A 29.93 1014 10 16.0934 0 0
5:54 am 05:54 Clear 67 19.4 60 15.6 79 79 SE 8 13 29.91 1013 10 16.0934 0 0
6:54 am 06:54 Mostly Cloudy with Light Thunderstorms 67 19.4 60 15.6 79 79 SSE 15 24 29.93 1014 5 8.0467 0.001 0.001
7:01 am 07:01 Mostly Cloudy with Heavy Thunderstorms 65 18.3 61 16.1 87 87 SSE 15 24 29.93 1014 1.75 2.816345 0.13 3.302
7:08 am 07:08 Cloudy with Thunderstorms 65 18.3 62 16.7 90 90 VRB 7 11 29.93 1014 2 3.21868 0.21 5.334
7:13 am 07:13 Cloudy with Thunderstorms 66 18.9 62 16.7 87 87 Calm 29.94 1014 3 4.82802 0.23 5.842
7:16 am 07:16 Cloudy with Light Thunderstorms 66 18.9 62 16.7 87 87 VRB 3 6 29.95 1014 6 9.65604 0.23 5.842
7:39 am 07:39 Cloudy with Light Rain 66 18.9 62 16.7 87 87 S 9 15 29.95 1014 7 11.26538 0.24 6.096
7:48 am 07:48 Cloudy with Light Thunderstorms 66 19 63 17 88 88 S 9 15 29.95 1014 8 12.87472 0.25 6.35
7:54 am 07:54 Cloudy with Light Thunderstorms 67 19.4 62 16.7 84 84 S 7 11 29.96 1014 8 12.87472 0.25 6.35
8:10 am 08:10 Mostly Cloudy with Light Rain 66 18.9 63 17.2 90 90 S 9 15 29.94 1014 8 12.87472 0.001 0.001
8:17 am 08:17 Mostly Cloudy with Nearby Thunderstorms 67 19.4 63 17.2 87 87 S 8 13 29.94 1014 9 14.48406 0.001 0.001
8:32 am 08:32 Mostly Sunny 68 20 64 17.8 87 87 S 13 20 29.95 1014 8 12.87472 0.001 0.001
8:54 am 08:54 Sunny 69 20.6 65 18.3 87 87 S 8 13 29.95 1014 8 12.87472 0.001 0.001
9:54 am 09:54 Mostly Sunny 77 25 68 20 74 74 SW 12 19 29.96 1014 9 14.48406 0 0
10:54 am 10:54 Partly Cloudy 78 25.6 69 20.6 74 74 SSW 10 17 29.97 1015 9 14.48406 0 0
11:54 am 11:54 Cloudy 80 26.7 70 21.1 71 71 S 8 13 29.96 1015 9 14.48406 0 0
12:26 pm 12:26 Mostly Cloudy 82 27.8 70 21.1 67 67 SSE 10 17 29.92 1013 9 14.48406 0 0
12:36 pm 12:36 Mostly Cloudy 82 27.8 71 21.7 69 69 SSE 14 22 29.91 1013 9 14.48406 0 0
12:52 pm 12:52 Partly Cloudy 82 28 72 22 70 70 S 16 26 29.91 1013 9 14.48406 0 0
12:54 pm 12:54 Partly Cloudy 83 28.3 70 21.1 65 65 S 15 24 29.94 1014 9 14.48406 0 0
1:44 pm 13:44 Mostly Cloudy 85 29.4 71 21.7 63 63 S 15 24 29.89 1012 9 14.48406 0 0
1:47 pm 13:47 Partly Cloudy 85 29.4 71 21.7 63 63 S 10 17 29.89 1012 9 14.48406 0 0
1:54 pm 13:54 Partly Cloudy 85 29.4 71 21.7 63 63 S 10 17 29.92 1013 9 14.48406 0 0
2:54 pm 14:54 Mostly Sunny 87 30.6 71 21.7 59 59 S 16 26 29.9 1012 9 14.48406 0 0
3:54 pm 15:54 Mostly Sunny 87 30.6 70 21.1 57 57 SSE 16 26 29.88 1012 9 14.48406 0 0
4:54 pm 16:54 Sunny 87 30.6 68 20 53 53 SSE 15 24 29.88 1012 9 14.48406 0 0
5:54 pm 17:54 Sunny 86 30 66 18.9 51 51 S 15 24 29.88 1012 9 14.48406 0 0
6:54 pm 18:54 Sunny 84 28.9 67 19.4 57 57 S 16 26 29.88 1012 9 14.48406 0 0
7:54 pm 19:54 Sunny 82 27.8 67 19.4 60 60 SSE 14 22 29.88 1012 9 14.48406 0 0
8:54 pm 20:54 Clear 78 25.6 67 19.4 69 69 SSE 9 15 29.9 1012 10 16.0934 0 0
9:54 pm 21:54 Mostly Clear 77 25 68 20 74 74 SSE 12 19 29.92 1013 10 16.0934 0 0
10:54 pm 22:54 Partly Cloudy 76 24.4 68 20 77 77 SSE 12 19 29.92 1013 10 16.0934 0 0
11:54 pm 23:54 Clear 75 23.9 68 20 79 79 SSE 14 22 29.91 1013 9 14.48406 0 0

Powered by AerisWeather